Mather, CA

1:59 AM PDT on September 25, 2016 (GMT -0700)
Mather

Weather History for KMHR - February, 2013

Change the Weather History Date:

Wednesday, February 13, 2013

  Actual Average Record
Temperature  
Mean Temperature 44 °F -  
Max Temperature 59 °F 55 °F 73 °F (2015)
Min Temperature 28 °F 39 °F 28 °F (2013)
Degree Days  
Heating Degree Days 22    
Moisture  
Dew Point 36 °F    
Average Humidity 76    
Maximum Humidity 100    
Minimum Humidity 45    
Precipitation  
Precipitation 0.00 in - - ()
Sea Level Pressure  
Sea Level Pressure 30.28 in    
Wind  
Wind Speed 1 mph (SSE)    
Max Wind Speed 5 mph    
Max Gust Speed -    
Visibility 9 miles    
Events      
Averages and records for this station are not official NWS values.
T = Trace of Precipitation, MM = Missing Value Source: NWS Daily Summary

Daily Weather History Graph

Daily Weather History Graph

Search for Another Location

Airport or City:

Trip Planner

Search our weather history database for the weather conditions in past years. The results will help you decide how hot, cold, wet, or windy it might be!

Date:

Astronomy

Feb. 13, 2013 Rise Set
Actual Time 6:57 AM PST 5:41 PM PST
Civil Twilight 6:30 AM PST 6:08 PM PST
Nautical Twilight 5:59 AM PST 6:39 PM PST
Astronomical Twilight 5:28 AM PST 7:10 PM PST
Moon 8:33 AM PST (2/13) 9:45 PM PST (2/13)
Length of Visible Light 11h 37m
Length of Day
10h 43m
Waxing Crescent, 14% of the Moon is Illuminated
Feb 13
Waxing Crescent
Feb 17
First Quarter
Feb 25
Full
Mar 4
Last Quarter
Mar 11
New

Hourly Weather History & Observations

Time (PST) Temp. Windchill Dew Point Humidity Pressure Visibility Wind Dir Wind Speed Gust Speed Precip Events Conditions
1:55 AM 35.6 °F - 32.0 °F 87% 30.33 in 10.0 mi Calm Calm - N/A   Clear
2:55 AM 32.0 °F - 32.0 °F 100% 30.32 in 10.0 mi Calm Calm - N/A   Clear
3:50 AM 33.8 °F 30.8 °F 32.0 °F 93% 30.32 in 10.0 mi NNE 3.5 mph - N/A   Clear
4:50 AM 33.8 °F - 32.0 °F 93% 30.32 in 10.0 mi Calm Calm - N/A   Clear
5:45 AM 33.8 °F - 32.0 °F 93% 30.32 in 10.0 mi Calm Calm - N/A   Clear
6:50 AM 28.4 °F - 28.4 °F 100% 30.32 in 8.0 mi Calm Calm - N/A   Clear
7:46 AM 32.0 °F - 30.2 °F 93% 30.34 in 8.0 mi Calm Calm - N/A   Clear
8:50 AM 41.0 °F - 35.6 °F 81% 30.34 in 8.0 mi Calm Calm - N/A   Clear
9:52 AM 46.4 °F - 37.4 °F 71% 30.35 in 8.0 mi Calm Calm - N/A   Clear
12:46 PM 57.2 °F - 37.4 °F 48% 30.29 in 8.0 mi Calm Calm - N/A   Clear
1:46 PM 59.0 °F - 37.4 °F 45% 30.26 in 8.0 mi Calm Calm - N/A   Clear
2:46 PM 59.0 °F - 37.4 °F 45% 30.25 in 8.0 mi Calm Calm - N/A   Clear
3:45 PM 59.0 °F - 57.2 °F 94% 30.23 in 9.0 mi SSW 4.6 mph - N/A   Clear
4:45 PM 57.2 °F - 39.2 °F 51% 30.22 in 9.0 mi South 4.6 mph - N/A   Clear
5:45 PM 55.4 °F - 39.2 °F 54% 30.22 in 10.0 mi SE 4.6 mph - N/A   Clear
6:45 PM 48.2 °F - 37.4 °F 66% 30.22 in 10.0 mi SE 4.6 mph - N/A   Clear
7:45 PM 44.6 °F - 37.4 °F 76% 30.22 in 10.0 mi Calm Calm - N/A   Clear
8:45 PM 46.4 °F - 37.4 °F 71% 30.22 in 10.0 mi Calm Calm - N/A   Clear
10:45 PM 39.2 °F - 35.6 °F 87% 30.23 in 10.0 mi Calm Calm - N/A   Clear